www.pogodaiklimat.ru

Погода и климат >> Архив погоды >> Аргентина >> Сан-Хуан


ПОГОДА в Сан-Хуане

  • Прогноз погоды в Сан-Хуане
  • Монитор погоды в Сан-Хуане

АРХИВ ПОГОДЫ в Сан-Хуане

Время (UTC), дата Ветер
(напр.,м/с)
 
Видим.   Явления Облачность Т
(С)
Тd
(С)
f
(%)
Тe
(С)
Тes
(С)
Комфортность P
(гПа)
Po
(гПа)
Тmin
(С)
Tmax
(С)
R
(мм)
R24
(мм)
S
(см)
09 12.08 ЮВ 5 15 км ясно +4.6 -10.4 33 +1 +1 1022.3 952.2
12 12.08 Ю 5 15 км ясно +6.5 -8.6 33 +3 +4 1027.7 956.6 +4.5 +12.8
15 12.08 Ю 7 15 км ясно +14.8 -11.2 15 +13 +16 1029.0 958.6
18 12.08 Ю 7 15 км 3/0
[Ci]
+16.0 -11.4 14 +15 +18 1028.0 957.3
21 12.08 Ю 5 15 км 1/0
[Ci]
+16.0 -10.8 15 +15 +16 1027.9 957.0
00 13.08 Ю 3 15 км ясно +8.4 -7.3 32 +7 +7 1031.5 959.7 +6.5 +16.6
03 13.08 ЮЗ 4 15 км ясно +5.0 -8.1 38 +2 +2 1032.7 961.4
06 13.08 Ю 4 15 км ясно +5.5 -8.6 35 +3 +3 1032.6 961.5
09 13.08 ЮВ 5 15 км ясно +4.0 -7.1 44 0 0 1032.8 961.4
12 13.08 Ю 2 15 км ясно +2.2 -5.0 59 -1 0 1035.9 963.2 +1.6 +8.4
15 13.08 Ю 2 15 км 4/0
[Ci]
+9.4 -3.8 39 +9 +18 1034.9 962.8
18 13.08 З 1 15 км 4/0
[Ci]
+14.2 -4.6 27 +15 +25 1030.3 959.0
21 13.08 штиль 0 15 км 4/0
[Ci]
+15.4 -3.9 26 +15 +17 1028.5 957.4
00 14.08 Ю 3 15 км ясно +7.3 -4.6 43 +5 +5 1030.4 958.0 +2.2 +16.5
03 14.08 СВ 1 15 км 5/0
[Ci]
+5.6 -3.8 51 +5 +5 1029.3 957.6
06 14.08 С 2 15 км 3/0
[Ci]
+1.8 -6.3 55 -0 -0 1026.7 955.3
09 14.08 С 2 15 км 4/0
[Ci]
+0.7 -5.9 61 -2 -2 1024.1 952.9
12 14.08 штиль 0 5000 м дым 4/0
[Ci]
+1.4 -5.3 61 +1 +2 1024.6 952.5 -1.0 +7.3
15 14.08 СВ 3 15 км 6/0
[Ci]
+13.4 -4.1 29 +13 +20 1022.3 951.6
18 14.08 В 2 15 км 5/0
[Cs]
+16.8 -3.5 25 +17 +26 1017.9 947.4
21 14.08 Ю 3 15 км 5/0
[Cs]
+17.4 -3.9 23 +18 +18 1015.7 945.4
00 15.08 ЮЗ 3 15 км 5/0
[Cs]
+10.6 -4.1 35 +9 +9 1018.0 946.8 +1.4 +18.0
03 15.08 штиль 0 15 км ясно +5.6 -3.8 51 +5 +5 1017.7 947.3
06 15.08 ЮВ 2 15 км ясно +2.2 -3.6 65 0 0 1017.9 947.4
09 15.08 Ю 2 15 км ясно +2.2 -2.9 69 -1 -1 1017.7 947.4
12 15.08 ЮЗ 2 15 км 9/0
[Cs]
+2.0 -3.5 67 -0 0 1020.5 949.2 +0.5 +10.6
15 15.08 ЮВ 1 15 км 6/0
[Cs]
+14.6 -0.8 35 +15 +25 1018.9 948.6
18 15.08 ЮЗ 1 15 км 5/0
[Cs]
+19.0 -1.0 26 +20 +30 1015.8 945.8
21 15.08 ЮВ 4 15 км 4/0
[Cs]
+19.6 -2.5 22 +20 +20 1014.3 944.5
00 16.08 З 3 15 км 4/0
[Cs]
+11.2 -3.0 37 +10 +10 1017.2 946.2 +2.0 +20.5
03 16.08 СВ 2 15 км 3/0
[Cs]
+10.8 -2.2 40 +10 +10 1015.4 945.8
06 16.08 С 2 15 км 3/0
[Cs]
+5.0 -0.7 67 +3 +3 1013.6 944.1
09 16.08 С 4 15 км 1/0
[Cs]
+5.4 -2.7 56 +2 +2 1011.4 942.2
12 16.08 Ю 2 5000 м дым 6/0
[Cs]
+2.4 -5.5 56 0 +1 1014.0 943.2 +0.5 +11.2
15 16.08 Ю 3 8000 м дым 6/0
[Cs]
+13.6 -4.2 29 +13 +20 1011.8 942.5
18 16.08 Ю 5 15 км 3/0
[Cs]
+19.4 -2.1 23 +19 +24 1008.1 939.0
21 16.08 Ю 6 15 км 1/0
[Cs]
+20.5 -5.4 17 +20 +20 1007.4 938.5
00 17.08 Ю 2 15 км ясно +12.4 -3.2 34 +12 +12 1010.0 939.7 +2.4 +21.6
03 17.08 штиль 0 15 км ясно +9.0 -0.9 50 +9 +9 1010.2 940.8
06 17.08 Ю 4 15 км ясно +5.0 -3.3 55 +2 +2 1010.9 941.6
09 17.08 Ю 7 15 км ясно +8.0 -2.4 48 +4 +4 1012.0 943.0
12 17.08 З 2 15 км ясно +8.1 -1.9 49 +7 +8 1015.8 945.7 +3.0 +12.4
15 17.08 Ю 2 15 км 4/0
[Cs]
+14.6 +0.6 38 +15 +24 1014.6 945.0
18 17.08 Ю 4 15 км 4/0
[Ci]
+20.0 +0.9 28 +20 +27 1012.8 943.4
21 17.08 Ю 6 15 км ясно +20.4 -4.2 19 +20 +20 1012.2 943.3
00 18.08 Ю 4 15 км 3/0
[Ci sp]
+14.0 -3.4 30 +13 +13 1016.5 946.6 +8.1 +21.4
03 18.08 Ю 2 15 км ясно +10.2 -0.1 49 +10 +10 1018.6 948.8
06 18.08 Ю 1 15 км ясно +7.7 -2.5 48 +7 +7 1018.8 949.4
09 18.08 ЮВ 5 15 км ясно +5.7 -4.0 50 +2 +2 1020.0 950.2
12 18.08 Ю 7 15 км ясно +9.6 -3.1 41 +6 +6 1024.1 953.8 +4.5 +14.0
15 18.08 Ю 7 15 км ясно +13.4 -1.8 35 +11 +14 1025.4 955.0
18 18.08 Ю 7 15 км 5/0
[Cs]
+16.5 -0.6 31 +15 +18 1023.3 953.2
21 18.08 Ю 9 15 км 4/0
[Cs]
+15.7 -0.6 33 +14 +14 1023.3 952.8
00 19.08 Ю 7 15 км 3/0
[Ac As]
+8.4 +1.9 64 +4 +4 1027.7 956.5 +8.4 +16.8
03 19.08 Ю 4 15 км 5/0
[Ac As]
+5.9 +1.6 74 +2 +2 1028.4 957.3

 

Местоположение метеостанции Сан-Хуан (Аргентина): широта -31.40 долгота -68.41 высота над уровнем моря 598 м.

В архиве по умолчанию представлена погода в Сан-Хуане за последнюю неделю. Архивные данные за месяц целиком и за предыдущие месяцы, начиная с января 2011 года, Вы можете получить, выбрав интересующий диапазон дат из раскрывающегося списка и нажав кнопку "Ввод!".


*Определитесь, кто Вы:
робот инопланетянин человек

Внимание! Время в таблицах - всемирное. Для получения местного времени необходимо прибавить поправку, которая равна -3 ч.

Смотрите также архив погоды в соседних городах и на ближайших метеорологических станциях:

Погода в Мендосе (Аргентина) (163 км)
Погода в Сан-Мартине (Аргентина) (187 км)
Погода на Пасо Лос Либертадорес (Чили) (228 км)
Погода в Чамикале (Аргентина) (234 км)
Погода в Монте-Патрии (Чили) (255 км)
Погода в Сантьяго Эль-Тололо (Чили) (266 км)
Погода в Викунье (Чили) (267 км)
Погода в Ла-Риохе (Аргентина) (272 км)
Погода в Овалье (Чили) (280 км)
Погода в Сан-Луисе (Аргентина) (283 км)

Пояснения к столбцам:

Ветер - указаны скорость ветра в м/с - средняя за 10 мин, порывы в срок и между сроками (в фигурных скобках) и направление, откуда дует ветер: С - северный, СВ - северо-восточный, В - восточный, ЮВ - юго-восточный, Ю - южный, ЮЗ - юго-западный, З - западный, СЗ - северо-западный.
Видимость - горизонтальная дальность видимости в метрах или километрах. При видимости от 1 до 10 км при отсутствии осадков обычно наблюдается дымка, при ухудшении видимости до 1 км и менее - туман. В сухую погоду видимость может ухудшаться дымом, пылью или мглою.
Явления - указаны атмосферные явления, наблюдавшиеся в срок или в последний час перед сроком; фигурными скобками обозначены явления, наблюдавшиеся между сроками (за 1-3 часа до срока); квадратными скобками обозначены град или гололедные отложения с указанием их диаметра в мм.
Облачность - указаны через наклонную черту общая и нижняя облачность в баллах и высота нижней границы облаков в метрах; квадратными скобками обозначены формы облаков: Ci - перистые, Cs - перисто-слоистые, Cc - перисто-кучевые, Ac - высококучевые, As - высокослоистые, Sc - слоисто-кучевые, Ns - слоисто-дождевые, Cu - кучевые, Cb - кучево-дождевые. Подробнее классификацию облаков см. в Атласе облаков (PDF).
T - Температура воздуха - температура, измеренная на высоте 2 м над землей.
Td - Температура точки росы - температура, при понижении до которой содержащийся в воздухе водяной пар достигнет насыщения.
f - Относительная влажность воздуха - влажноcть воздуха, измеренная на высоте 2 м над землей.
Te - Эффективная температура - температура, которую ощущает одетый по сезону человек в тени. Характеристика душности погоды. При расчете учитывается влияние влажности воздуха и скорости ветра на теплоощущения человека.
Tes - Эффективная температура на солнце - температура, которую ощущает человек, с поправкой на солнечный нагрев. Характеристика знойности погоды. Зависит от высоты солнца над горизонтом, облачности и скорости ветра. Ночью, в пасмурную погоду, а также при ветре 12 м/с и более поправка равна нулю.
P - Атмосферное давление - приведенное к уровню моря атмосферное давление.
Po - Атмосферное давление - измеренное на уровне метеостанции атмосферное давление.
Tmin - Минимальная температура - минимум температуры воздуха на высоте 2 м над землей.
Tmax - Максимальная температура - максимум температуры воздуха на высоте 2 м над землей.
R - Количество осадков - Количество выпавших осадков за период времени, мм. При наведении курсора мыши на число - период времени, за который выпало указанное количество осадков.
R24 - Количество осадков - Количество выпавших осадков за 24 часа, мм.
S - Снежный покров - Высота снежного покрова, см. При наведении курсора мыши на число - состояние снежного покрова и степень покрытия местности в баллах.